Voltar ao catálogo

THORAD AGENA D DEB

AtivoLEO
NORAD 5519·DEBRIS·🇺🇸 United States

Lançado Sep 30, 1969 de Vandenberg Space Force Base

Loading…

Próximas Passagens (próximas 24 horas)

TLE

AtualizadoSource: Space-Track

Época: Sep 14, 2026, 01:29 UTC

1 05519U 69082HY  26257.06231541  .00000691  00000-0  21655-3 0  9997
2 05519  70.0536 129.9849 0043914  91.1437 269.4726 14.44132463963928

Acompanhe THORAD AGENA D DEB em tempo real com AllMySat

Download on the App Store